Year,Month,Day,Hour,Minute,Value (Times are PST for temperature in C)
2013,04,24,00,00,7.00
2013,04,24,00,01,7.00
2013,04,24,00,02,7.00
2013,04,24,00,03,7.00
2013,04,24,00,04,6.90
2013,04,24,00,05,6.90
2013,04,24,00,06,6.90
2013,04,24,00,07,6.90
2013,04,24,00,08,6.80
2013,04,24,00,09,6.80
2013,04,24,00,10,6.80
2013,04,24,00,11,6.80
2013,04,24,00,12,6.70
2013,04,24,00,13,6.70
2013,04,24,00,14,6.70
2013,04,24,00,15,6.70
2013,04,24,00,16,6.60
2013,04,24,00,17,6.60
2013,04,24,00,18,6.60
2013,04,24,00,19,6.60
2013,04,24,00,20,6.50
2013,04,24,00,21,6.50
2013,04,24,00,22,6.50
2013,04,24,00,23,6.40
2013,04,24,00,24,6.40
2013,04,24,00,25,6.40
2013,04,24,00,26,6.30
2013,04,24,00,27,6.30
2013,04,24,00,28,6.30
2013,04,24,00,29,6.30
2013,04,24,00,30,6.30
2013,04,24,00,31,6.20
2013,04,24,00,32,6.20
2013,04,24,00,33,6.20
2013,04,24,00,34,6.20
2013,04,24,00,35,6.10
2013,04,24,00,36,6.10
2013,04,24,00,37,6.10
2013,04,24,00,38,6.10
2013,04,24,00,39,6.00
2013,04,24,00,40,6.00
2013,04,24,00,41,5.90
2013,04,24,00,42,5.90
2013,04,24,00,43,5.90
2013,04,24,00,44,5.90
2013,04,24,00,45,5.90
2013,04,24,00,46,5.90
2013,04,24,00,47,5.80
2013,04,24,00,48,5.80
2013,04,24,00,49,5.80
2013,04,24,00,50,5.80
2013,04,24,00,51,5.80
2013,04,24,00,52,5.80
2013,04,24,00,53,5.80
2013,04,24,00,54,5.80
2013,04,24,00,55,5.80
2013,04,24,00,56,5.80
2013,04,24,00,57,5.70
2013,04,24,00,58,5.70
2013,04,24,00,59,5.70
2013,04,24,01,00,5.70
2013,04,24,01,01,5.70
2013,04,24,01,02,5.70
2013,04,24,01,03,5.70
2013,04,24,01,04,5.70
2013,04,24,01,05,5.70
2013,04,24,01,06,5.70
2013,04,24,01,07,5.70
2013,04,24,01,08,5.70
2013,04,24,01,09,5.70
2013,04,24,01,10,5.60
2013,04,24,01,11,5.60
2013,04,24,01,12,5.60
2013,04,24,01,13,5.60
2013,04,24,01,14,5.60
2013,04,24,01,15,5.50
2013,04,24,01,16,5.50
2013,04,24,01,17,5.50
2013,04,24,01,18,5.50
2013,04,24,01,19,5.50
2013,04,24,01,20,5.50
2013,04,24,01,21,5.50
2013,04,24,01,22,5.40
2013,04,24,01,23,5.40
2013,04,24,01,24,5.40
2013,04,24,01,25,5.40
2013,04,24,01,26,5.40
2013,04,24,01,27,5.40
2013,04,24,01,28,5.30
2013,04,24,01,29,5.30
2013,04,24,01,30,5.30
2013,04,24,01,31,5.30
2013,04,24,01,32,5.30
2013,04,24,01,33,5.20
2013,04,24,01,34,5.20
2013,04,24,01,35,5.20
2013,04,24,01,36,5.20
2013,04,24,01,37,5.20
2013,04,24,01,38,5.20
2013,04,24,01,39,5.10
2013,04,24,01,40,5.10
2013,04,24,01,41,5.10
2013,04,24,01,42,5.10
2013,04,24,01,43,5.00
2013,04,24,01,44,5.00
2013,04,24,01,45,5.00
2013,04,24,01,46,4.90
2013,04,24,01,47,4.90
2013,04,24,01,48,4.90
2013,04,24,01,49,4.90
2013,04,24,01,50,4.90
2013,04,24,01,51,4.80
2013,04,24,01,52,4.80
2013,04,24,01,53,4.80
2013,04,24,01,54,4.80
2013,04,24,01,55,4.80
2013,04,24,01,56,4.70
2013,04,24,01,57,4.70
2013,04,24,01,58,4.70
2013,04,24,01,59,4.70
2013,04,24,02,00,4.70
2013,04,24,02,01,4.70
2013,04,24,02,02,4.70
2013,04,24,02,03,4.70
2013,04,24,02,04,4.70
2013,04,24,02,05,4.60
2013,04,24,02,06,4.60
2013,04,24,02,07,4.60
2013,04,24,02,08,4.60
2013,04,24,02,09,4.50
2013,04,24,02,10,4.50
2013,04,24,02,11,4.50
2013,04,24,02,12,4.40
2013,04,24,02,13,4.40
2013,04,24,02,14,4.40
2013,04,24,02,15,4.40
2013,04,24,02,16,4.40
2013,04,24,02,17,4.40
2013,04,24,02,18,4.30
2013,04,24,02,19,4.30
2013,04,24,02,20,4.30
2013,04,24,02,21,4.30
2013,04,24,02,22,4.30
2013,04,24,02,23,4.30
2013,04,24,02,24,4.30
2013,04,24,02,25,4.30
2013,04,24,02,26,4.30
2013,04,24,02,27,4.20
2013,04,24,02,28,4.20
2013,04,24,02,29,4.20
2013,04,24,02,30,4.20
2013,04,24,02,31,4.20
2013,04,24,02,32,4.20
2013,04,24,02,33,4.20
2013,04,24,02,34,4.20
2013,04,24,02,35,4.10
2013,04,24,02,36,4.10
2013,04,24,02,37,4.10
2013,04,24,02,38,4.10
2013,04,24,02,39,4.00
2013,04,24,02,40,4.00
2013,04,24,02,41,4.00
2013,04,24,02,42,4.00
2013,04,24,02,43,4.00
2013,04,24,02,44,4.00
2013,04,24,02,45,3.90
2013,04,24,02,46,3.90
2013,04,24,02,47,3.90
2013,04,24,02,48,3.90
2013,04,24,02,49,3.90
2013,04,24,02,50,3.80
2013,04,24,02,51,3.80
2013,04,24,02,52,3.80
2013,04,24,02,53,3.80
2013,04,24,02,54,3.80
2013,04,24,02,55,3.80
2013,04,24,02,56,3.80
2013,04,24,02,57,3.80
2013,04,24,02,58,3.80
2013,04,24,02,59,3.70
2013,04,24,03,00,3.70
2013,04,24,03,01,3.70
2013,04,24,03,02,3.70
2013,04,24,03,03,3.60
2013,04,24,03,04,3.60
2013,04,24,03,05,3.60
2013,04,24,03,06,3.60
2013,04,24,03,07,3.60
2013,04,24,03,08,3.60
2013,04,24,03,09,3.60
2013,04,24,03,10,3.60
2013,04,24,03,11,3.60
2013,04,24,03,12,3.60
2013,04,24,03,13,3.60
2013,04,24,03,14,3.60
2013,04,24,03,15,3.60
2013,04,24,03,16,3.60
2013,04,24,03,17,3.60
2013,04,24,03,18,3.60
2013,04,24,03,19,3.60
2013,04,24,03,20,3.60
2013,04,24,03,21,3.60
2013,04,24,03,22,3.60
2013,04,24,03,23,3.60
2013,04,24,03,24,3.60
2013,04,24,03,25,3.50
2013,04,24,03,26,3.50
2013,04,24,03,27,3.50
2013,04,24,03,28,3.40
2013,04,24,03,29,3.40
2013,04,24,03,30,3.40
2013,04,24,03,31,3.40
2013,04,24,03,32,3.30
2013,04,24,03,33,3.30
2013,04,24,03,34,3.30
2013,04,24,03,35,3.30
2013,04,24,03,36,3.20
2013,04,24,03,37,3.20
2013,04,24,03,38,3.20
2013,04,24,03,39,3.20
2013,04,24,03,40,3.20
2013,04,24,03,41,3.10
2013,04,24,03,42,3.10
2013,04,24,03,43,3.10
2013,04,24,03,44,3.10
2013,04,24,03,45,3.10
2013,04,24,03,46,3.10
2013,04,24,03,47,3.10
2013,04,24,03,48,3.10
2013,04,24,03,49,3.10
2013,04,24,03,50,3.10
2013,04,24,03,51,3.10
2013,04,24,03,52,3.10
2013,04,24,03,53,3.00
2013,04,24,03,54,3.00
2013,04,24,03,55,3.00
2013,04,24,03,56,2.90
2013,04,24,03,57,2.90
2013,04,24,03,58,2.90
2013,04,24,03,59,2.90
2013,04,24,04,00,2.90
2013,04,24,04,01,2.90
2013,04,24,04,02,2.90
2013,04,24,04,03,2.90
2013,04,24,04,04,2.90
2013,04,24,04,05,2.90
2013,04,24,04,06,2.90
2013,04,24,04,07,2.90
2013,04,24,04,08,2.90
2013,04,24,04,09,2.90
2013,04,24,04,10,2.90
2013,04,24,04,11,2.90
2013,04,24,04,12,2.90
2013,04,24,04,13,2.90
2013,04,24,04,14,2.90
2013,04,24,04,15,2.90
2013,04,24,04,16,2.90
2013,04,24,04,17,2.90
2013,04,24,04,18,2.90
2013,04,24,04,19,2.90
2013,04,24,04,20,2.80
2013,04,24,04,21,2.80
2013,04,24,04,22,2.80
2013,04,24,04,23,2.80
2013,04,24,04,24,2.80
2013,04,24,04,25,2.80
2013,04,24,04,26,2.80
2013,04,24,04,27,2.80
2013,04,24,04,28,2.80
2013,04,24,04,29,2.80
2013,04,24,04,30,2.70
2013,04,24,04,31,2.70
2013,04,24,04,32,2.70
2013,04,24,04,33,2.70
2013,04,24,04,34,2.70
2013,04,24,04,35,2.70
2013,04,24,04,36,2.70
2013,04,24,04,37,2.60
2013,04,24,04,38,2.60
2013,04,24,04,39,2.60
2013,04,24,04,40,2.60
2013,04,24,04,41,2.60
2013,04,24,04,42,2.60
2013,04,24,04,43,2.60
2013,04,24,04,44,2.60
2013,04,24,04,45,2.60
2013,04,24,04,46,2.50
2013,04,24,04,47,2.50
2013,04,24,04,48,2.50
2013,04,24,04,49,2.50
2013,04,24,04,50,2.50
2013,04,24,04,51,2.50
2013,04,24,04,52,2.40
2013,04,24,04,53,2.40
2013,04,24,04,54,2.40
2013,04,24,04,55,2.40
2013,04,24,04,56,2.40
2013,04,24,04,57,2.40
2013,04,24,04,58,2.40
2013,04,24,04,59,2.30
2013,04,24,05,00,2.30
2013,04,24,05,01,2.30
2013,04,24,05,02,2.30
2013,04,24,05,03,2.30
2013,04,24,05,04,2.30
2013,04,24,05,05,2.30
2013,04,24,05,06,2.30
2013,04,24,05,07,2.30
2013,04,24,05,08,2.30
2013,04,24,05,09,2.20
2013,04,24,05,10,2.20
2013,04,24,05,11,2.20
2013,04,24,05,12,2.20
2013,04,24,05,13,2.20
2013,04,24,05,14,2.20
2013,04,24,05,15,2.20
2013,04,24,05,16,2.20
2013,04,24,05,17,2.20
2013,04,24,05,18,2.20
2013,04,24,05,19,2.20
2013,04,24,05,20,2.20
2013,04,24,05,21,2.20
2013,04,24,05,22,2.20
2013,04,24,05,23,2.20
2013,04,24,05,24,2.20
2013,04,24,05,25,2.20
2013,04,24,05,26,2.20
2013,04,24,05,27,2.10
2013,04,24,05,28,2.10
2013,04,24,05,29,2.10
2013,04,24,05,30,2.10
2013,04,24,05,31,2.10
2013,04,24,05,32,2.10
2013,04,24,05,33,2.10
2013,04,24,05,34,2.10
2013,04,24,05,35,2.10
2013,04,24,05,36,2.10
2013,04,24,05,37,2.10
2013,04,24,05,38,2.00
2013,04,24,05,39,2.00
2013,04,24,05,40,2.00
2013,04,24,05,41,2.00
2013,04,24,05,42,2.00
2013,04,24,05,43,2.00
2013,04,24,05,44,1.90
2013,04,24,05,45,1.90
2013,04,24,05,46,1.90
2013,04,24,05,47,1.90
2013,04,24,05,48,1.90
2013,04,24,05,49,1.80
2013,04,24,05,50,1.80
2013,04,24,05,51,1.80
2013,04,24,05,52,1.80
2013,04,24,05,53,1.80
2013,04,24,05,54,1.80
2013,04,24,05,55,1.80
2013,04,24,05,56,1.80
2013,04,24,05,57,1.70
2013,04,24,05,58,1.70
2013,04,24,05,59,1.70
2013,04,24,06,00,1.70
2013,04,24,06,01,1.70
2013,04,24,06,02,1.70
2013,04,24,06,03,1.70
2013,04,24,06,04,1.70
2013,04,24,06,05,1.70
2013,04,24,06,06,1.70
2013,04,24,06,07,1.70
2013,04,24,06,08,1.70
2013,04,24,06,09,1.70
2013,04,24,06,10,1.70
2013,04,24,06,11,1.70
2013,04,24,06,12,1.70
2013,04,24,06,13,1.70
2013,04,24,06,14,1.70
2013,04,24,06,15,1.70
2013,04,24,06,16,1.60
2013,04,24,06,17,1.60
2013,04,24,06,18,1.60
2013,04,24,06,19,1.60
2013,04,24,06,20,1.50
2013,04,24,06,21,1.50
2013,04,24,06,22,1.50
2013,04,24,06,23,1.50
2013,04,24,06,24,1.50
2013,04,24,06,25,1.50
2013,04,24,06,26,1.60
2013,04,24,06,27,1.60
2013,04,24,06,28,1.60
2013,04,24,06,29,1.60
2013,04,24,06,30,1.60
2013,04,24,06,31,1.60
2013,04,24,06,32,1.60
2013,04,24,06,33,1.60
2013,04,24,06,34,1.60
2013,04,24,06,35,1.60
2013,04,24,06,36,1.60
2013,04,24,06,37,1.60
2013,04,24,06,38,1.60
2013,04,24,06,39,1.60
2013,04,24,06,40,1.60
2013,04,24,06,41,1.60
2013,04,24,06,42,1.60
2013,04,24,06,43,1.60
2013,04,24,06,44,1.60
2013,04,24,06,45,1.70
2013,04,24,06,46,1.70
2013,04,24,06,47,1.70
2013,04,24,06,48,1.70
2013,04,24,06,49,1.70
2013,04,24,06,50,1.70
2013,04,24,06,51,1.70
2013,04,24,06,52,1.70
2013,04,24,06,53,1.70
2013,04,24,06,54,1.70
2013,04,24,06,55,1.80
2013,04,24,06,56,1.80
2013,04,24,06,57,1.80
2013,04,24,06,58,1.80
2013,04,24,06,59,1.80
2013,04,24,07,00,1.90
2013,04,24,07,01,1.90
2013,04,24,07,02,1.90
2013,04,24,07,03,2.00
2013,04,24,07,04,2.00
2013,04,24,07,05,2.00
2013,04,24,07,06,2.10
2013,04,24,07,07,2.10
2013,04,24,07,08,2.10
2013,04,24,07,09,2.10
2013,04,24,07,10,2.10
2013,04,24,07,11,2.20
2013,04,24,07,12,2.20
2013,04,24,07,13,2.20
2013,04,24,07,14,2.30
2013,04,24,07,15,2.30
2013,04,24,07,16,2.40
2013,04,24,07,17,2.50
2013,04,24,07,18,2.50
2013,04,24,07,19,2.60
2013,04,24,07,20,2.70
2013,04,24,07,21,2.70
2013,04,24,07,22,2.80
2013,04,24,07,23,2.80
2013,04,24,07,24,2.80
2013,04,24,07,25,2.80
2013,04,24,07,26,2.80
2013,04,24,07,27,2.80
2013,04,24,07,28,2.80
2013,04,24,07,29,2.80
2013,04,24,07,30,2.80
2013,04,24,07,31,2.90
2013,04,24,07,32,2.90
2013,04,24,07,33,2.90
2013,04,24,07,34,3.00
2013,04,24,07,35,3.00
2013,04,24,07,36,3.10
2013,04,24,07,37,3.20
2013,04,24,07,38,3.20
2013,04,24,07,39,3.20
2013,04,24,07,40,3.20
2013,04,24,07,41,3.30
2013,04,24,07,42,3.30
2013,04,24,07,43,3.30
2013,04,24,07,44,3.30
2013,04,24,07,45,3.30
2013,04,24,07,46,3.40
2013,04,24,07,47,3.40
2013,04,24,07,48,3.50
2013,04,24,07,49,3.50
2013,04,24,07,50,3.60
2013,04,24,07,51,3.60
2013,04,24,07,52,3.60
2013,04,24,07,53,3.70
2013,04,24,07,54,3.70
2013,04,24,07,55,3.70
2013,04,24,07,56,3.80
2013,04,24,07,57,3.90
2013,04,24,07,58,3.90
2013,04,24,07,59,4.00
2013,04,24,08,00,4.10
2013,04,24,08,01,4.10
2013,04,24,08,02,4.20
2013,04,24,08,03,4.20
2013,04,24,08,04,4.30
2013,04,24,08,05,4.30
2013,04,24,08,06,4.30
2013,04,24,08,07,4.30
2013,04,24,08,08,4.40
2013,04,24,08,09,4.40
2013,04,24,08,10,4.50
2013,04,24,08,11,4.50
2013,04,24,08,12,4.60
2013,04,24,08,13,4.70
2013,04,24,08,14,4.70
2013,04,24,08,15,4.80
2013,04,24,08,16,4.90
2013,04,24,08,17,4.90
2013,04,24,08,18,5.00
2013,04,24,08,19,5.10
2013,04,24,08,20,5.20
2013,04,24,08,21,5.30
2013,04,24,08,22,5.30
2013,04,24,08,23,5.40
2013,04,24,08,24,5.40
2013,04,24,08,25,5.50
2013,04,24,08,26,5.60
2013,04,24,08,27,5.60
2013,04,24,08,28,5.70
2013,04,24,08,29,5.80
2013,04,24,08,30,5.80
2013,04,24,08,31,5.90
2013,04,24,08,32,5.90
2013,04,24,08,33,6.00
2013,04,24,08,34,6.10
2013,04,24,08,35,6.10
2013,04,24,08,36,6.20
2013,04,24,08,37,6.30
2013,04,24,08,38,6.30
2013,04,24,08,39,6.40
2013,04,24,08,40,6.40
2013,04,24,08,41,6.50
2013,04,24,08,42,6.60
2013,04,24,08,43,6.70
2013,04,24,08,44,6.70
2013,04,24,08,45,6.80
2013,04,24,08,46,6.80
2013,04,24,08,47,6.90
2013,04,24,08,48,7.00
2013,04,24,08,49,7.10
2013,04,24,08,50,7.20
2013,04,24,08,51,7.30
2013,04,24,08,52,7.40
2013,04,24,08,53,7.50
2013,04,24,08,54,7.60
2013,04,24,08,55,7.70
2013,04,24,08,56,7.70
2013,04,24,08,57,7.80
2013,04,24,08,58,7.90
2013,04,24,08,59,7.90
2013,04,24,09,00,8.00
2013,04,24,09,01,8.10
2013,04,24,09,02,8.20
2013,04,24,09,03,8.30
2013,04,24,09,04,8.40
2013,04,24,09,05,8.50
2013,04,24,09,06,8.50
2013,04,24,09,07,8.60
2013,04,24,09,08,8.60
2013,04,24,09,09,8.70
2013,04,24,09,10,8.70
2013,04,24,09,11,8.70
2013,04,24,09,12,8.70
2013,04,24,09,13,8.70
2013,04,24,09,14,8.70
2013,04,24,09,15,8.70
2013,04,24,09,16,8.70
2013,04,24,09,17,8.70
2013,04,24,09,18,8.80
2013,04,24,09,19,8.80
2013,04,24,09,20,8.90
2013,04,24,09,21,8.90
2013,04,24,09,22,9.00
2013,04,24,09,23,9.00
2013,04,24,09,24,9.10
2013,04,24,09,25,9.10
2013,04,24,09,26,9.20
2013,04,24,09,27,9.20
2013,04,24,09,28,9.20
2013,04,24,09,29,9.30
2013,04,24,09,30,9.30
2013,04,24,09,31,9.40
2013,04,24,09,32,9.40
2013,04,24,09,33,9.50
2013,04,24,09,34,9.50
2013,04,24,09,35,9.60
2013,04,24,09,36,9.70
2013,04,24,09,37,9.80
2013,04,24,09,38,9.90
2013,04,24,09,39,10.00
2013,04,24,09,40,10.10
2013,04,24,09,41,10.20
2013,04,24,09,42,10.30
2013,04,24,09,43,10.40
2013,04,24,09,44,10.40
2013,04,24,09,45,10.40
2013,04,24,09,46,10.40
2013,04,24,09,47,10.40
2013,04,24,09,48,10.40
2013,04,24,09,49,10.40
2013,04,24,09,50,10.40
2013,04,24,09,51,10.30
2013,04,24,09,52,10.30
2013,04,24,09,53,10.40
2013,04,24,09,54,10.40
2013,04,24,09,55,10.40
2013,04,24,09,56,10.50
2013,04,24,09,57,10.60
2013,04,24,09,58,10.70
2013,04,24,09,59,10.80
2013,04,24,10,00,10.80
2013,04,24,10,01,10.80
2013,04,24,10,02,10.90
2013,04,24,10,03,10.90
2013,04,24,10,04,11.00
2013,04,24,10,05,11.10
2013,04,24,10,06,11.20
2013,04,24,10,07,11.30
2013,04,24,10,08,11.40
2013,04,24,10,09,11.50
2013,04,24,10,10,11.50
2013,04,24,10,11,11.60
2013,04,24,10,12,11.70
2013,04,24,10,13,11.80
2013,04,24,10,14,11.80
2013,04,24,10,15,11.80
2013,04,24,10,16,11.80
2013,04,24,10,17,11.70
2013,04,24,10,18,11.60
2013,04,24,10,19,11.60
2013,04,24,10,20,11.50
2013,04,24,10,21,11.50
2013,04,24,10,22,11.50
2013,04,24,10,23,11.50
2013,04,24,10,24,11.60
2013,04,24,10,25,11.60
2013,04,24,10,26,11.70
2013,04,24,10,27,11.70
2013,04,24,10,28,11.70
2013,04,24,10,29,11.80
2013,04,24,10,30,11.90
2013,04,24,10,31,12.10
2013,04,24,10,32,12.20
2013,04,24,10,33,12.30
2013,04,24,10,34,12.50
2013,04,24,10,35,12.60
2013,04,24,10,36,12.70
2013,04,24,10,37,12.80
2013,04,24,10,38,12.90
2013,04,24,10,39,13.00
2013,04,24,10,40,13.10
2013,04,24,10,41,13.20
2013,04,24,10,42,13.30
2013,04,24,10,43,13.30
2013,04,24,10,44,13.40
2013,04,24,10,45,13.40
2013,04,24,10,46,13.40
2013,04,24,10,47,13.50
2013,04,24,10,48,13.40
2013,04,24,10,49,13.40
2013,04,24,10,50,13.30
2013,04,24,10,51,13.20
2013,04,24,10,52,13.10
2013,04,24,10,53,13.10
2013,04,24,10,54,13.00
2013,04,24,10,55,13.00
2013,04,24,10,56,13.10
2013,04,24,10,57,13.10
2013,04,24,10,58,13.20
2013,04,24,10,59,13.30
2013,04,24,11,00,13.50
2013,04,24,11,01,13.60
2013,04,24,11,02,13.70
2013,04,24,11,03,13.70
2013,04,24,11,04,13.70
2013,04,24,11,05,13.80
2013,04,24,11,06,13.80
2013,04,24,11,07,13.90
2013,04,24,11,08,14.00
2013,04,24,11,09,14.10
2013,04,24,11,10,14.10
2013,04,24,11,11,14.20
2013,04,24,11,12,14.30
2013,04,24,11,13,14.30
2013,04,24,11,14,14.40
2013,04,24,11,15,14.50
2013,04,24,11,16,14.60
2013,04,24,11,17,14.70
2013,04,24,11,18,14.80
2013,04,24,11,19,14.80
2013,04,24,11,20,14.90
2013,04,24,11,21,15.00
2013,04,24,11,22,15.10
2013,04,24,11,23,15.10
2013,04,24,11,24,15.20
2013,04,24,11,25,15.20
2013,04,24,11,26,15.20
2013,04,24,11,27,15.20
2013,04,24,11,28,15.20
2013,04,24,11,29,15.20
2013,04,24,11,30,15.10
2013,04,24,11,31,15.00
2013,04,24,11,32,15.00
2013,04,24,11,33,15.00
2013,04,24,11,34,15.10
2013,04,24,11,35,15.10
2013,04,24,11,36,15.10
2013,04,24,11,37,15.10
2013,04,24,11,38,15.10
2013,04,24,11,39,15.10
2013,04,24,11,40,15.10
2013,04,24,11,41,15.20
2013,04,24,11,42,15.20
2013,04,24,11,43,15.30
2013,04,24,11,44,15.30
2013,04,24,11,45,15.40
2013,04,24,11,46,15.50
2013,04,24,11,47,15.60
2013,04,24,11,48,15.70
2013,04,24,11,49,15.80
2013,04,24,11,50,15.80
2013,04,24,11,51,15.90
2013,04,24,11,52,16.00
2013,04,24,11,53,16.10
2013,04,24,11,54,16.10
2013,04,24,11,55,16.10
2013,04,24,11,56,16.20
2013,04,24,11,57,16.20
2013,04,24,11,58,16.10
2013,04,24,11,59,16.10
2013,04,24,12,00,16.10
2013,04,24,12,01,16.10
2013,04,24,12,02,16.10
2013,04,24,12,03,16.20
2013,04,24,12,04,16.20
2013,04,24,12,05,16.20
2013,04,24,12,06,16.30
2013,04,24,12,07,16.30
2013,04,24,12,08,16.40
2013,04,24,12,09,16.40
2013,04,24,12,10,16.50
2013,04,24,12,11,16.60
2013,04,24,12,12,16.60
2013,04,24,12,13,16.60
2013,04,24,12,14,16.60
2013,04,24,12,15,16.70
2013,04,24,12,16,16.70
2013,04,24,12,17,16.70
2013,04,24,12,18,16.80
2013,04,24,12,19,16.70
2013,04,24,12,20,16.80
2013,04,24,12,21,16.80
2013,04,24,12,22,16.80
2013,04,24,12,23,16.90
2013,04,24,12,24,17.00
2013,04,24,12,25,17.00
2013,04,24,12,26,17.20
2013,04,24,12,27,17.30
2013,04,24,12,28,17.40
2013,04,24,12,29,17.50
2013,04,24,12,30,17.50
2013,04,24,12,31,17.50
2013,04,24,12,32,17.50
2013,04,24,12,33,17.60
2013,04,24,12,34,17.60
2013,04,24,12,35,17.70
2013,04,24,12,36,17.70
2013,04,24,12,37,17.70
2013,04,24,12,38,17.70
2013,04,24,12,39,17.80
2013,04,24,12,40,17.80
2013,04,24,12,41,17.90
2013,04,24,12,42,18.00
2013,04,24,12,43,18.10
2013,04,24,12,44,18.20
2013,04,24,12,45,18.30
2013,04,24,12,46,18.40
2013,04,24,12,47,18.40
2013,04,24,12,48,18.30
2013,04,24,12,49,18.30
2013,04,24,12,50,18.30
2013,04,24,12,51,18.30
2013,04,24,12,52,18.40
2013,04,24,12,53,18.40
2013,04,24,12,54,18.50
2013,04,24,12,55,18.60
2013,04,24,12,56,18.70
2013,04,24,12,57,18.80
2013,04,24,12,58,18.80
2013,04,24,12,59,18.80
2013,04,24,13,00,18.80
2013,04,24,13,01,18.80
2013,04,24,13,02,18.80
2013,04,24,13,03,18.80
2013,04,24,13,04,18.90
2013,04,24,13,05,19.00
2013,04,24,13,06,19.10
2013,04,24,13,07,19.20
2013,04,24,13,08,19.30
2013,04,24,13,09,19.30
2013,04,24,13,10,19.40
2013,04,24,13,11,19.50
2013,04,24,13,12,19.50
2013,04,24,13,13,19.60
2013,04,24,13,14,19.60
2013,04,24,13,15,19.70
2013,04,24,13,16,19.70
2013,04,24,13,17,19.80
2013,04,24,13,18,19.80
2013,04,24,13,19,19.80
2013,04,24,13,20,19.80
2013,04,24,13,21,19.80
2013,04,24,13,22,19.80
2013,04,24,13,23,19.80
2013,04,24,13,24,19.70
2013,04,24,13,25,19.70
2013,04,24,13,26,19.60
2013,04,24,13,27,19.60
2013,04,24,13,28,19.60
2013,04,24,13,29,19.60
2013,04,24,13,30,19.60
2013,04,24,13,31,19.70
2013,04,24,13,32,19.80
2013,04,24,13,33,19.80
2013,04,24,13,34,19.90
2013,04,24,13,35,19.90
2013,04,24,13,36,20.00
2013,04,24,13,37,20.00
2013,04,24,13,38,20.10
2013,04,24,13,39,20.20
2013,04,24,13,40,20.30
2013,04,24,13,41,20.30
2013,04,24,13,42,20.30
2013,04,24,13,43,20.30
2013,04,24,13,44,20.30
2013,04,24,13,45,20.20
2013,04,24,13,46,20.20
2013,04,24,13,47,20.20
2013,04,24,13,48,20.20
2013,04,24,13,49,20.20
2013,04,24,13,50,20.20
2013,04,24,13,51,20.20
2013,04,24,13,52,20.20
2013,04,24,13,53,20.20
2013,04,24,13,54,20.30
2013,04,24,13,55,20.30
2013,04,24,13,56,20.30
2013,04,24,13,57,20.40
2013,04,24,13,58,20.40
2013,04,24,13,59,20.40
2013,04,24,14,00,20.40
2013,04,24,14,01,20.50
2013,04,24,14,02,20.60
2013,04,24,14,03,20.60
2013,04,24,14,04,20.60
2013,04,24,14,05,20.60
2013,04,24,14,06,20.70
2013,04,24,14,07,20.70
2013,04,24,14,08,20.70
2013,04,24,14,09,20.60
2013,04,24,14,10,20.60
2013,04,24,14,11,20.60
2013,04,24,14,12,20.50
2013,04,24,14,13,20.60
2013,04,24,14,14,20.70
2013,04,24,14,15,20.70
2013,04,24,14,16,20.70
2013,04,24,14,17,20.60
2013,04,24,14,18,20.60
2013,04,24,14,19,20.60
2013,04,24,14,20,20.70
2013,04,24,14,21,20.70
2013,04,24,14,22,20.70
2013,04,24,14,23,20.70
2013,04,24,14,24,20.80
2013,04,24,14,25,20.80
2013,04,24,14,26,20.90
2013,04,24,14,27,21.00
2013,04,24,14,28,21.00
2013,04,24,14,29,21.00
2013,04,24,14,30,21.10
2013,04,24,14,31,21.10
2013,04,24,14,32,21.10
2013,04,24,14,33,21.20
2013,04,24,14,34,21.20
2013,04,24,14,35,21.20
2013,04,24,14,36,21.10
2013,04,24,14,37,21.00
2013,04,24,14,38,20.90
2013,04,24,14,39,20.90
2013,04,24,14,40,20.90
2013,04,24,14,41,21.00
2013,04,24,14,42,21.10
2013,04,24,14,43,21.20
2013,04,24,14,44,21.30
2013,04,24,14,45,21.40
2013,04,24,14,46,21.40
2013,04,24,14,47,21.40
2013,04,24,14,48,21.40
2013,04,24,14,49,21.40
2013,04,24,14,50,21.40
2013,04,24,14,51,21.40
2013,04,24,14,52,21.30
2013,04,24,14,53,21.20
2013,04,24,14,54,21.20
2013,04,24,14,55,21.10
2013,04,24,14,56,21.10
2013,04,24,14,57,21.00
2013,04,24,14,58,20.90
2013,04,24,14,59,20.90
2013,04,24,15,00,20.80
2013,04,24,15,01,20.80
2013,04,24,15,02,20.80
2013,04,24,15,03,20.80
2013,04,24,15,04,20.90
2013,04,24,15,05,21.00
2013,04,24,15,06,21.00
2013,04,24,15,07,21.10
2013,04,24,15,08,21.20
2013,04,24,15,09,21.20
2013,04,24,15,10,21.20
2013,04,24,15,11,21.20
2013,04,24,15,12,21.30
2013,04,24,15,13,21.40
2013,04,24,15,14,21.40
2013,04,24,15,15,21.40
2013,04,24,15,16,21.40
2013,04,24,15,17,21.40
2013,04,24,15,18,21.40
2013,04,24,15,19,21.30
2013,04,24,15,20,21.30
2013,04,24,15,21,21.30
2013,04,24,15,22,21.20
2013,04,24,15,23,21.20
2013,04,24,15,24,21.30
2013,04,24,15,25,21.30
2013,04,24,15,26,21.30
2013,04,24,15,27,21.30
2013,04,24,15,28,21.20
2013,04,24,15,29,21.10
2013,04,24,15,30,21.00
2013,04,24,15,31,20.80
2013,04,24,15,32,20.80
2013,04,24,15,33,20.80
2013,04,24,15,34,20.80
2013,04,24,15,35,20.90
2013,04,24,15,36,20.90
2013,04,24,15,37,20.90
2013,04,24,15,38,20.90
2013,04,24,15,39,20.90
2013,04,24,15,40,21.00
2013,04,24,15,41,21.10
2013,04,24,15,42,21.10
2013,04,24,15,43,21.10
2013,04,24,15,44,21.10
2013,04,24,15,45,21.00
2013,04,24,15,46,20.90
2013,04,24,15,47,20.80
2013,04,24,15,48,20.80
2013,04,24,15,49,20.90
2013,04,24,15,50,20.90
2013,04,24,15,51,20.90
2013,04,24,15,52,20.90
2013,04,24,15,53,20.90
2013,04,24,15,54,20.90
2013,04,24,15,55,20.90
2013,04,24,15,56,20.90
2013,04,24,15,57,20.90
2013,04,24,15,58,20.90
2013,04,24,15,59,20.90
2013,04,24,16,00,21.00
2013,04,24,16,01,21.00
2013,04,24,16,02,21.00
2013,04,24,16,03,21.00
2013,04,24,16,04,20.90
2013,04,24,16,05,20.90
2013,04,24,16,06,20.90
2013,04,24,16,07,20.90
2013,04,24,16,08,20.90
2013,04,24,16,09,20.90
2013,04,24,16,10,20.90
2013,04,24,16,11,20.90
2013,04,24,16,12,20.90
2013,04,24,16,13,20.90
2013,04,24,16,14,20.80
2013,04,24,16,15,20.80
2013,04,24,16,16,20.80
2013,04,24,16,17,20.80
2013,04,24,16,18,20.80
2013,04,24,16,19,20.70
2013,04,24,16,20,20.70
2013,04,24,16,21,20.70
2013,04,24,16,22,20.60
2013,04,24,16,23,20.60
2013,04,24,16,24,20.60
2013,04,24,16,25,20.60
2013,04,24,16,26,20.50
2013,04,24,16,27,20.50
2013,04,24,16,28,20.50
2013,04,24,16,29,20.60
2013,04,24,16,30,20.60
2013,04,24,16,31,20.70
2013,04,24,16,32,20.80
2013,04,24,16,33,20.90
2013,04,24,16,34,21.00
2013,04,24,16,35,21.10
2013,04,24,16,36,21.10
2013,04,24,16,37,21.20
2013,04,24,16,38,21.20
2013,04,24,16,39,21.10
2013,04,24,16,40,21.10
2013,04,24,16,41,21.10
2013,04,24,16,42,21.20
2013,04,24,16,43,21.10
2013,04,24,16,44,21.10
2013,04,24,16,45,21.10
2013,04,24,16,46,21.20
2013,04,24,16,47,21.20
2013,04,24,16,48,21.20
2013,04,24,16,49,21.20
2013,04,24,16,50,21.20
2013,04,24,16,51,21.20
2013,04,24,16,52,21.30
2013,04,24,16,53,21.20
2013,04,24,16,54,21.20
2013,04,24,16,55,21.00
2013,04,24,16,56,20.90
2013,04,24,16,57,20.80
2013,04,24,16,58,20.80
2013,04,24,16,59,20.70
2013,04,24,17,00,20.70
2013,04,24,17,01,20.60
2013,04,24,17,02,20.60
2013,04,24,17,03,20.50
2013,04,24,17,04,20.40
2013,04,24,17,05,20.40
2013,04,24,17,06,20.40
2013,04,24,17,07,20.30
2013,04,24,17,08,20.30
2013,04,24,17,09,20.20
2013,04,24,17,10,20.20
2013,04,24,17,11,20.20
2013,04,24,17,12,20.10
2013,04,24,17,13,20.10
2013,04,24,17,14,20.10
2013,04,24,17,15,20.10
2013,04,24,17,16,20.10
2013,04,24,17,17,20.20
2013,04,24,17,18,20.20
2013,04,24,17,19,20.20
2013,04,24,17,20,20.20
2013,04,24,17,21,20.20
2013,04,24,17,22,20.30
2013,04,24,17,23,20.30
2013,04,24,17,24,20.30
2013,04,24,17,25,20.40
2013,04,24,17,26,20.40
2013,04,24,17,27,20.40
2013,04,24,17,28,20.40
2013,04,24,17,29,20.30
2013,04,24,17,30,20.30
2013,04,24,17,31,20.40
2013,04,24,17,32,20.40
2013,04,24,17,33,20.50
2013,04,24,17,34,20.50
2013,04,24,17,35,20.60
2013,04,24,17,36,20.50
2013,04,24,17,37,20.40
2013,04,24,17,38,20.40
2013,04,24,17,39,20.30
2013,04,24,17,40,20.20
2013,04,24,17,41,20.20
2013,04,24,17,42,20.20
2013,04,24,17,43,20.10
2013,04,24,17,44,20.10